Date String (YYYY-MM-DD hh:mm:ss) UTC,Instrument flags,absolute air pressure of the measurement (hPa),sample flow rate (lpm),inlet stack bypass flow (lpm),air temperature of the measurement (°C),ambient temperature measured by the external sensor (°C),aerosol sample conditioner tube jacket temperature (°C),OPC LED temperature (°C),internal box temperature (°C),relative humidity of the measurement (%),span deviation,mass concentration of particles derived from Lorenz-Mie calculation of OPC scattering (μg/m³),mass concentration of particles derived from Lorenz-Mie calculation of OPC scattering (μg/m³),mass concentration of particles derived from Lorenz-Mie calculation of OPC scattering (μg/m³)
DateTimeUTC,F1_M11,P_M11,Q1_M11,Q2_M11,T1_M11,T2_M11,T3_M11,T4_M11,T5_M11,U1_M11,ZSPAN_M11,X0_M11,X2_M11,X1_M11
2023-12-07 13:00:00,SystemResetWarning,0819.7,5.00,000.00,023.5,022.4,000.0,031.9,024.8,10.3,0000.0,0002.46,0000.84,0000.66
2023-12-07 13:01:00,SystemResetWarning,0819.8,5.00,000.00,023.5,022.4,000.0,031.9,024.8,10.2,0000.0,0002.42,0000.83,0000.66
2023-12-07 13:02:00,SystemResetWarning,0819.7,4.99,000.00,023.5,022.4,000.0,031.9,024.8,10.2,0000.0,0002.37,0000.81,0000.66
2023-12-07 13:03:00,SystemResetWarning,0820.0,5.00,000.00,023.5,022.4,000.0,031.9,024.8,10.3,0000.0,0002.68,0000.80,0000.66
2023-12-07 13:04:00,SystemResetWarning,0819.8,5.01,000.00,023.5,022.4,000.0,031.9,024.8,10.3,0000.0,0002.25,0000.78,0000.63
2023-12-07 13:05:00,SystemResetWarning,0820.1,5.01,000.00,023.5,022.3,000.0,031.9,024.8,10.3,0000.0,0003.87,0000.78,0000.60
2023-12-07 13:06:00,SystemResetWarning,0819.9,5.00,000.00,023.5,022.3,000.0,031.9,024.7,10.3,0000.0,0004.12,0000.77,0000.58
2023-12-07 13:07:00,SystemResetWarning,0819.9,4.99,000.00,023.5,022.3,000.0,031.9,024.7,10.4,0000.0,0004.20,0000.78,0000.55
2023-12-07 13:08:00,SystemResetWarning,0820.2,4.99,000.00,023.5,022.3,000.0,031.9,024.7,10.5,0000.0,0004.36,0000.81,0000.56
2023-12-07 13:09:00,SystemResetWarning,0820.0,5.01,000.00,023.5,022.3,000.0,031.9,024.7,10.4,0000.0,0004.72,0000.81,0000.56
2023-12-07 13:10:00,SystemResetWarning,0819.8,5.00,000.00,023.4,022.3,000.0,031.8,024.6,10.5,0000.0,0004.94,0000.80,0000.55
2023-12-07 13:11:00,SystemResetWarning,0819.8,5.01,000.00,023.4,022.3,000.0,031.8,024.6,10.3,0000.0,0004.99,0000.82,0000.55
2023-12-07 13:12:00,SystemResetWarning,0819.9,4.99,000.00,023.4,022.3,000.0,031.8,024.6,10.1,0000.0,0005.21,0000.88,0000.55
2023-12-07 13:13:00,SystemResetWarning,0820.0,4.99,000.00,023.4,022.3,000.0,031.8,024.7,10.3,0000.0,0005.14,0000.89,0000.56
2023-12-07 13:14:00,SystemResetWarning,0820.0,4.99,000.00,023.4,022.3,000.0,031.8,024.7,10.1,0000.0,0004.56,0000.90,0000.56
2023-12-07 13:15:00,SystemResetWarning,0820.1,5.01,000.00,023.4,022.3,000.0,031.8,024.7,10.1,0000.0,0004.67,0000.90,0000.56
2023-12-07 13:16:00,SystemResetWarning,0820.0,5.01,000.00,023.4,022.3,000.0,031.8,024.8,10.0,0000.0,0003.38,0000.85,0000.56
2023-12-07 13:17:00,SystemResetWarning,0820.1,5.01,000.00,023.4,022.3,000.0,031.8,024.8,10.1,0000.0,0003.04,0000.84,0000.56
2023-12-07 13:18:00,SystemResetWarning,0820.0,5.00,000.00,023.4,022.3,000.0,031.8,024.8,10.2,0000.0,0002.94,0000.81,0000.58
2023-12-07 13:19:00,SystemResetWarning,0820.0,4.99,000.00,023.4,022.3,000.0,031.8,024.7,10.2,0000.0,0002.83,0000.80,0000.58
2023-12-07 13:20:00,SystemResetWarning,0820.1,5.01,000.00,023.4,022.3,000.0,031.8,024.7,10.4,0000.0,0002.60,0000.83,0000.59
2023-12-07 13:21:00,SystemResetWarning,0820.0,5.01,000.00,023.4,022.3,000.0,031.8,024.7,10.6,0000.0,0002.74,0000.85,0000.59
2023-12-07 13:22:00,SystemResetWarning,0820.0,5.01,000.00,023.4,022.3,000.0,031.8,024.7,10.6,0000.0,0003.21,0000.83,0000.59
2023-12-07 13:23:00,SystemResetWarning,0820.1,4.98,000.00,023.4,022.4,000.0,031.8,024.7,10.5,0000.0,0003.03,0000.79,0000.59
2023-12-07 13:24:00,SystemResetWarning,0820.1,4.99,000.00,023.4,022.4,000.0,031.8,024.7,10.4,0000.0,0003.01,0000.78,0000.59
2023-12-07 13:25:00,SystemResetWarning,0820.2,5.00,000.00,023.4,022.4,000.0,031.8,024.7,10.3,0000.0,0002.69,0000.77,0000.60
2023-12-07 13:26:00,SystemResetWarning,0820.1,5.01,000.00,023.4,022.4,000.0,031.8,024.7,10.3,0000.0,0002.47,0000.76,0000.60
2023-12-07 13:27:00,SystemResetWarning,0820.0,5.00,000.00,023.4,022.4,000.0,031.7,024.7,10.2,0000.0,0002.14,0000.76,0000.61
2023-12-07 13:28:00,SystemResetWarning,0819.9,4.99,000.00,023.4,022.4,000.0,031.7,024.8,10.2,0000.0,0002.10,0000.74,0000.60
2023-12-07 13:29:00,SystemResetWarning,0820.0,4.99,000.00,023.4,022.4,000.0,031.7,024.8,10.2,0000.0,0002.08,0000.73,0000.59
2023-12-07 13:30:00,SystemResetWarning,0820.0,5.00,000.00,023.4,022.4,000.0,031.7,024.8,10.2,0000.0,0002.17,0000.73,0000.59
2023-12-07 13:31:00,SystemResetWarning,0820.1,5.01,000.00,023.4,022.4,000.0,031.7,024.8,10.2,0000.0,0002.24,0000.70,0000.58
2023-12-07 13:32:00,SystemResetWarning,0820.0,5.01,000.00,023.4,022.4,000.0,031.7,024.8,10.3,0000.0,0001.78,0000.67,0000.58
2023-12-07 13:33:00,SystemResetWarning,0820.0,4.99,000.00,023.4,022.5,000.0,031.7,024.8,10.3,0000.0,0001.53,0000.66,0000.58
2023-12-07 13:34:00,SystemResetWarning,0820.1,4.99,000.00,023.4,022.5,000.0,031.7,024.8,10.2,0000.0,0001.55,0000.69,0000.59
2023-12-07 13:35:00,SystemResetWarning,0820.0,5.01,000.00,023.4,022.5,000.0,031.7,024.8,10.3,0000.0,0001.54,0000.68,0000.59
2023-12-07 13:36:00,SystemResetWarning,0820.1,5.01,000.00,023.4,022.5,000.0,031.7,024.8,10.2,0000.0,0001.54,0000.70,0000.58
2023-12-07 13:37:00,SystemResetWarning,0820.1,5.00,000.00,023.4,022.5,000.0,031.7,024.8,10.1,0000.0,0001.56,0000.73,0000.58
2023-12-07 13:38:00,SystemResetWarning,0820.0,5.00,000.00,023.4,022.6,000.0,031.7,024.9,10.1,0000.0,0001.68,0000.76,0000.58
2023-12-07 13:39:00,SystemResetWarning,0820.2,4.99,000.00,023.5,022.6,000.0,031.8,024.9,10.0,0000.0,0001.85,0000.78,0000.58
2023-12-07 13:40:00,SystemResetWarning,0820.0,5.00,000.00,023.5,022.6,000.0,031.8,024.9,10.1,0000.0,0001.94,0000.82,0000.59
2023-12-07 13:41:00,SystemResetWarning,0820.1,4.99,000.00,023.5,022.6,000.0,031.8,024.9,10.1,0000.0,0001.94,0000.83,0000.59
2023-12-07 13:42:00,SystemResetWarning,0820.1,5.00,000.00,023.5,022.6,000.0,031.8,024.9,10.0,0000.0,0001.70,0000.81,0000.59
2023-12-07 13:43:00,SystemResetWarning,0820.1,5.02,000.00,023.5,022.6,000.0,031.8,024.9,9.9,0000.0,0001.69,0000.81,0000.59
2023-12-07 13:44:00,SystemResetWarning,0820.1,5.01,000.00,023.5,022.6,000.0,031.8,024.9,9.9,0000.0,0001.83,0000.81,0000.60
2023-12-07 13:45:00,SystemResetWarning,0820.2,5.00,000.00,023.5,022.6,000.0,031.8,024.9,10.0,0000.0,0003.09,0000.77,0000.59
2023-12-07 13:46:00,SystemResetWarning,0820.4,4.99,000.00,023.5,022.6,000.0,031.8,024.9,10.2,0000.0,0003.66,0000.78,0000.58
2023-12-07 13:47:00,SystemResetWarning,0820.2,5.00,000.00,023.5,022.7,000.0,031.8,024.9,10.2,0000.0,0003.78,0000.76,0000.57
2023-12-07 13:48:00,SystemResetWarning,0820.2,5.00,000.00,023.5,022.7,000.0,031.8,024.9,10.0,0000.0,0003.70,0000.72,0000.57
2023-12-07 13:49:00,SystemResetWarning,0820.2,5.01,000.00,023.5,022.7,000.0,031.8,024.9,9.8,0000.0,0003.61,0000.69,0000.56
2023-12-07 13:50:00,SystemResetWarning,0820.4,5.00,000.00,023.5,022.7,000.0,031.8,024.9,9.8,0000.0,0003.48,0000.70,0000.56
2023-12-07 13:51:00,SystemResetWarning,0820.2,5.00,000.00,023.5,022.7,000.0,031.8,024.9,9.8,0000.0,0003.40,0000.67,0000.55
2023-12-07 13:52:00,SystemResetWarning,0820.2,4.99,000.00,023.5,022.7,000.0,031.8,024.9,9.9,0000.0,0003.39,0000.67,0000.54
2023-12-07 13:53:00,SystemResetWarning,0820.2,5.00,000.00,023.5,022.6,000.0,031.8,024.9,10.0,0000.0,0003.37,0000.66,0000.53
2023-12-07 13:54:00,SystemResetWarning,0820.2,4.99,000.00,023.5,022.6,000.0,031.8,024.9,10.0,0000.0,0003.49,0000.69,0000.54
2023-12-07 13:55:00,SystemResetWarning,0820.2,5.00,000.00,023.5,022.6,000.0,031.8,024.9,9.6,0000.0,0003.53,0000.70,0000.54
2023-12-07 13:56:00,SystemResetWarning,0820.2,5.01,000.00,023.5,022.6,000.0,031.8,024.9,9.5,0000.0,0002.29,0000.71,0000.54
2023-12-07 13:57:00,SystemResetWarning,0820.2,5.00,000.00,023.5,022.6,000.0,031.8,024.9,9.4,0000.0,0001.48,0000.71,0000.54
2023-12-07 13:58:00,SystemResetWarning,0820.1,5.00,000.00,023.5,022.6,000.0,031.8,024.9,9.5,0000.0,0001.31,0000.76,0000.55
2023-12-07 13:59:00,SystemResetWarning,0820.1,4.99,000.00,023.6,022.6,000.0,031.8,024.9,9.6,0000.0,0001.33,0000.77,0000.55
